NOAA 16 DEB, 41353

Orbit data source: Space-Track

NOAA 16 DEB, 41353 is space debris in SSO originally from a launch on Thu, 21 Sep 2000 UTC launched from the Air Force Western Test Range (AFWTR). Debris objects in space refer to the collection of defunct objects orbiting the Earth. Examples of debris include non-operational satellites, rocket bodies, and fragments generated from explosions, collisions, or faulty payload assembly.

Loading next visibility...
Identifier
41353, 2000-055HW
Orbit
SSO
Country
Flag of USUS
Related business
Manufacturer
Unknown
Mission
Spacecraft
Bus & Motor
Unknown
Mass
Unknown
Launch date (UTC)
2000-09-21 (26 years ago)
Launch vehicle
Unknown
Launch site
Air Force Western Test Range (AFWTR)
Object type
Payload
Rocket body
Debris
Shape & HBR
Unknown shape, 0.1 m
Radar Cross Section
Medium (>0.1 m² and <1 m²)

Expand to show TLE details & history
Last TLE update: 2 days ago

TLE from 2 days ago
0 NOAA 16 DEB
1 41353U 00055HW  26261.40747295  .00002013  00000-0  85484-3 0  9999
2 41353  98.6841 327.4933 0025265 156.5184 203.7155 14.26238275549264
Epoch: 2026-09-18T09:46Z
TLE epoch observation values (Epoch: 2026-09-18T09:46:45.662Z)
Latitude
-0.00009°
Longitude
-176.52774°
Altitude
823.881 km
Speed
7.433 km/s
True Right ascension
21h 49m 58s
True Declination
0° 00' 00"
Sunlit
Object was in full shadow at epoch
Visualization orbit readout
Latitude
Unknown
Longitude
Unknown
Altitude
Unknown
Speed
Unknown
Apparent Right ascension
Unknown
Apparent Declination
Unknown
Sunlit
N/A
Visualization observer readout
Local Sidereal Time
06:57:43
Azimuth
Unknown
Elevation
Unknown
Doppler factor
Unknown
Orbital elements
Apogee altitude
819.621 km
Perigee altitude
783.342 km
Semi-major axis
7,179.618 km
Eccentricity
0.00253
Inclination
98.6841°
RAAN
327.4933°
Arg. of periapsis
156.5184°
True anomaly
203.59939°
Mean anomaly
203.7155°
Eccentric anomaly
203.65741°
Mean motion
3.56772 °/min
Orbital period
100.9 mins
BSTAR
0.00085484
Loading maneuver chart data...
Computing Atmospheric mass density...
Loading historical data...
Loading historical data...
Loading historical data...
Loading historical data...
Loading historical data...
Loading historical data...
Loading historical data...

Documentation

Showing up to 5 results
|